CW8504 Weather Reports


time (UTC)temp
F
wind
direction
speed
knots
gust
knots
rain 1hr
in
rain 24hr
in
rain mn
in
humidity
%
barometer
mb
20260902031904 57 221 0.0 0.0 0.01 0.12 0.12 64 1018.1
20260902031406 57 221 0.0 0.0 0.01 0.12 0.12 65 1018.1
20260902030904 58 221 0.0 0.0 0.01 0.12 0.12 65 1018.1
20260902030404 58 221 0.0 0.0 0.01 0.12 0.12 65 1018.1
20260902025904 59 221 0.0 0.0 0.01 0.12 0.12 63 1018.0
20260902025404 59 221 0.0 0.0 0.01 0.12 0.12 61 1017.9
20260902024904 60 220 0.0 0.0 0.01 0.12 0.12 60 1017.9
20260902023404 61 221 0.0 1.7 0.00 0.11 0.11 53 1018.5
20260902022404 62 201 0.0 0.0 0.00 0.11 0.11 52 1017.7
20260902021904 62 201 0.0 0.0 0.00 0.11 0.11 52 1017.7
20260902021404 63 201 0.0 0.0 0.00 0.11 0.11 50 1017.7
20260902020904 64 201 0.0 0.0 0.00 0.11 0.11 50 1017.7
20260902020404 64 201 0.0 0.0 0.00 0.11 0.11 45 1017.6
20260902015904 65 200 0.0 0.0 0.00 0.11 0.11 44 1017.4
20260902015404 66 195 0.0 0.9 0.00 0.11 0.11 41 1017.3
20260902014904 67 190 2.6 14.8 0.00 0.11 0.11 40 1017.7
20260902014404 68 207 5.2 11.3 0.00 0.11 0.11 37 1017.4
20260902013904 69 184 0.0 0.0 0.00 0.11 0.11 43 1016.9
20260902012904 69 173 0.0 0.0 0.00 0.11 0.11 41 1016.8
20260902012404 69 173 0.0 0.0 0.00 0.11 0.11 40 1016.6
20260902011905 70 171 0.0 0.0 0.00 0.11 0.11 39 1016.7
20260902011404 70 171 0.0 0.0 0.00 0.11 0.11 39 1016.8
20260902010904 71 211 0.0 0.0 0.00 0.11 0.11 41 1016.8
20260902010404 71 227 0.0 0.0 0.00 0.11 0.11 42 1016.8
20260902005405 71 227 0.0 0.0 0.00 0.11 0.11 38 1016.8
20260902004904 72 227 0.0 0.0 0.00 0.11 0.11 34 1016.8
20260902004404 72 227 0.0 0.0 0.00 0.11 0.11 34 1016.9
20260902003904 72 227 0.0 0.0 0.00 0.11 0.11 34 1016.9
20260902003404 72 227 0.0 0.0 0.00 0.11 0.11 33 1016.8
20260902002904 72 227 0.0 0.0 0.00 0.11 0.11 33 1016.8
20260902002404 73 228 0.0 4.3 0.00 0.11 0.11 31 1016.8
20260902001904 73 223 0.9 4.3 0.00 0.11 0.11 32 1016.9
20260902001404 73 229 0.9 2.6 0.00 0.11 0.11 32 1016.9
20260902000406 74 225 0.0 1.7 0.00 0.11 0.11 31 1017.0
20260901235904 75 225 0.0 2.6 0.00 0.11 0.11 29 1017.0
20260901234904 76 229 0.9 7.0 0.00 0.11 0.11 30 1017.0
20260901234404 76 236 0.9 2.6 0.00 0.11 0.11 27 1017.0
20260901233904 75 217 3.5 7.0 0.00 0.11 0.11 29 1017.0
20260901233404 75 250 2.6 5.2 0.00 0.11 0.11 29 1016.9
20260901232904 74 227 1.7 2.6 0.00 0.11 0.11 33 1017.0
20260901232404 74 217 0.9 2.6 0.00 0.11 0.11 30 1017.1
20260901231904 74 217 0.9 4.3 0.00 0.11 0.11 32 1017.1
20260901231404 74 221 0.9 5.2 0.00 0.11 0.11 32 1017.1
20260901230904 74 221 0.0 2.6 0.00 0.11 0.11 32 1017.3
20260901230404 74 234 1.7 2.6 0.00 0.11 0.11 32 1017.3
20260901225904 74 253 0.9 5.2 0.00 0.11 0.11 31 1017.3
20260901224904 75 234 2.6 7.0 0.00 0.11 0.11 30 1017.4
20260901224405 75 253 0.9 7.8 0.00 0.11 0.11 30 1017.3
20260901223904 75 233 3.5 7.8 0.00 0.11 0.11 30 1017.4
20260901223404 75 222 2.6 5.2 0.00 0.11 0.11 31 1017.4
20260901222904 74 231 2.6 7.8 0.00 0.11 0.11 31 1017.5
20260901222404 74 226 0.9 4.3 0.00 0.11 0.11 33 1017.5
20260901221904 74 247 0.0 2.6 0.00 0.11 0.11 35 1017.5
20260901220404 72 190 0.9 2.6 0.00 0.11 0.11 34 1017.7
20260901215904 72 241 0.0 2.6 0.00 0.11 0.11 35 1017.8
20260901215404 72 233 0.9 4.3 0.00 0.11 0.11 35 1017.9
20260901214904 72 223 1.7 7.0 0.00 0.11 0.11 35 1017.9
20260901214404 72 227 1.7 4.3 0.00 0.11 0.11 36 1018.0
20260901213904 72 135 0.9 4.3 0.00 0.11 0.11 36 1018.0
20260901213404 72 191 0.0 1.7 0.00 0.11 0.11 37 1018.1
20260901212404 72 238 0.0 0.0 0.00 0.11 0.11 39 1018.1
20260901211904 72 219 0.9 2.6 0.00 0.11 0.11 35 1018.4
20260901211404 72 238 0.0 2.6 0.00 0.11 0.11 37 1018.5
20260901210904 72 240 0.0 0.0 0.00 0.11 0.11 36 1018.5
20260901210404 72 215 0.0 0.0 0.00 0.11 0.11 36 1018.5
20260901205904 72 215 0.0 2.6 0.00 0.11 0.11 36 1018.6
20260901205404 72 205 0.9 2.6 0.00 0.11 0.11 37 1018.6
20260901203904 72 232 0.9 4.3 0.00 0.11 0.11 37 1018.8
20260901202904 72 212 0.9 6.1 0.00 0.11 0.11 38 1018.9
20260901201904 71 226 0.9 4.3 0.00 0.11 0.11 38 1019.0
20260901201404 71 226 1.7 5.2 0.00 0.11 0.11 39 1019.1
20260901200904 71 252 0.0 6.1 0.00 0.11 0.11 40 1019.3
20260901200404 71 239 0.0 0.0 0.00 0.11 0.11 40 1019.4
20260901195404 70 232 1.7 6.1 0.00 0.11 0.11 42 1019.5
20260901194904 70 230 0.9 2.6 0.00 0.11 0.11 42 1019.5
20260901194404 70 235 1.7 7.0 0.00 0.11 0.11 43 1019.6
20260901193904 69 239 0.0 5.2 0.00 0.11 0.11 45 1019.7
20260901193404 68 227 2.6 8.7 0.00 0.11 0.11 45 1019.7
20260901192904 68 234 1.7 4.3 0.00 0.11 0.11 45 1019.8
20260901192404 68 227 0.9 5.2 0.00 0.11 0.11 47 1019.8
20260901191904 68 232 0.9 2.6 0.00 0.11 0.11 46 1019.7
20260901190904 67 225 0.0 0.0 0.00 0.11 0.11 48 1019.8
20260901190404 66 225 4.3 7.8 0.00 0.11 0.11 49 1019.8
20260901185904 66 51 0.9 2.6 0.00 0.11 0.11 52 1019.9
20260901185404 65 51 0.0 0.0 0.00 0.11 0.11 55 1019.9
20260901184404 64 51 0.0 0.0 0.00 0.11 0.11 57 1020.0
20260901183904 64 51 0.0 0.0 0.00 0.11 0.11 56 1020.0
20260901183404 63 51 0.9 2.6 0.00 0.11 0.11 59 1020.0
20260901182904 63 46 0.9 4.3 0.00 0.11 0.11 59 1020.0
20260901182404 62 47 0.0 0.0 0.00 0.11 0.11 62 1020.0
20260901181904 62 47 0.0 2.6 0.00 0.11 0.11 61 1020.1
20260901180904 62 52 0.9 5.2 0.00 0.11 0.11 65 1020.1
20260901180404 61 56 0.0 0.0 0.00 0.11 0.11 67 1020.3
20260901175904 61 56 0.9 1.7 0.00 0.11 0.11 68 1020.4
20260901175404 60 51 0.0 0.0 0.00 0.11 0.11 70 1020.4
20260901174904 60 51 0.0 0.0 0.00 0.11 0.11 71 1020.5
20260901174404 60 51 0.0 0.0 0.00 0.11 0.11 75 1020.5
20260901173904 59 51 0.0 0.0 0.00 0.11 0.11 75 1020.6
20260901173404 58 51 0.0 0.0 0.00 0.11 0.11 75 1020.6
20260901172904 58 51 0.0 0.0 0.00 0.11 0.11 76 1020.7
20260901172404 58 48 0.0 0.0 0.00 0.11 0.11 76 1020.7
20260901171404 57 35 0.0 0.0 0.00 0.11 0.11 77 1020.8
20260901170904 57 35 0.0 0.0 0.00 0.11 0.11 77 1020.8
20260901170404 57 35 0.0 0.0 0.00 0.11 0.11 78 1020.8
20260901165904 57 35 0.0 0.0 0.00 0.11 0.11 78 1020.8
20260901165404 57 35 0.0 0.0 0.00 0.11 0.11 78 1020.8
20260901164904 56 35 0.0 0.0 0.00 0.11 0.11 78 1020.8
20260901164404 56 35 0.0 0.0 0.00 0.11 0.11 78 1020.7
20260901163904 56 35 0.0 0.0 0.00 0.11 0.11 79 1020.7
20260901163404 56 35 0.0 0.0 0.00 0.11 0.11 79 1020.7
20260901162904 56 35 0.0 0.0 0.00 0.11 0.11 79 1020.7
20260901161404 56 35 0.0 0.0 0.00 0.11 0.11 79 1020.6
20260901160404 56 35 0.0 0.0 0.01 0.11 0.11 79 1020.6
20260901155904 56 35 0.0 0.0 0.02 0.11 0.11 79 1020.6
20260901154904 55 35 0.0 0.0 0.03 0.11 0.11 79 1020.6
20260901153904 55 35 0.0 0.0 0.06 0.11 0.11 79 1020.6
20260901153404 55 35 0.0 0.0 0.06 0.11 0.11 79 1020.6
20260901152904 55 35 0.0 0.0 0.07 0.11 0.11 79 1020.7
20260901152404 55 35 0.0 0.0 0.07 0.11 0.11 79 1020.6
20260901151904 55 35 0.0 0.0 0.07 0.11 0.11 79 1020.6
20260901151404 55 35 0.0 0.0 0.07 0.11 0.11 78 1020.6
20260901150904 55 35 0.0 0.0 0.06 0.10 0.10 78 1020.6
20260901150404 54 35 0.0 0.0 0.06 0.10 0.10 78 1020.6
20260901145904 54 35 0.0 0.0 0.05 0.09 0.09 78 1020.7
20260901145404 54 35 0.0 0.0 0.05 0.09 0.09 78 1020.6
20260901144404 54 35 0.0 0.0 0.02 0.06 0.06 78 1020.5
20260901143905 54 35 0.0 0.0 0.01 0.05 0.05 78 1020.6
20260901143404 54 35 0.0 0.0 0.01 0.05 0.05 78 1020.5
20260901142404 54 35 0.0 0.0 0.00 0.04 0.04 78 1020.3
20260901141904 54 35 0.0 0.0 0.00 0.04 0.04 78 1020.3
20260901141404 54 35 0.0 0.0 0.00 0.04 0.04 78 1020.3
20260901140904 54 35 0.0 0.0 0.00 0.04 0.04 78 1020.3
20260901140404 54 35 0.0 0.0 0.00 0.04 0.04 78 1020.3
20260901135904 54 35 0.0 0.0 0.00 0.04 0.04 78 1020.3
20260901135404 54 35 0.0 0.0 0.01 0.04 0.04 77 1020.2
20260901134404 54 35 0.0 0.0 0.02 0.04 0.04 77 1020.1
20260901133904 54 35 0.0 0.0 0.03 0.04 0.04 77 1020.1
20260901133404 54 35 0.0 0.0 0.03 0.04 0.04 77 1020.2
20260901132904 54 35 0.0 0.0 0.03 0.04 0.04 77 1020.1
20260901131904 54 35 0.0 0.0 0.03 0.04 0.04 77 1020.1
20260901130904 54 35 0.0 0.0 0.03 0.04 0.04 76 1020.1
20260901130404 54 35 0.0 0.0 0.03 0.04 0.04 76 1020.0
20260901125904 54 35 0.0 0.0 0.03 0.04 0.04 76 1020.1
20260901124904 54 35 0.0 0.0 0.02 0.03 0.03 76 1019.9
20260901124404 54 35 0.0 0.0 0.01 0.02 0.02 76 1020.0
20260901123904 54 35 0.0 0.0 0.00 0.01 0.01 75 1019.9
20260901123404 54 35 0.0 0.0 0.00 0.01 0.01 75 1019.9
20260901122404 54 35 0.0 0.0 0.00 0.01 0.01 75 1020.0
20260901121904 54 35 0.0 0.0 0.00 0.01 0.01 75 1020.0
20260901120904 54 35 0.0 0.0 0.00 0.01 0.01 75 1019.9
20260901120404 54 35 0.0 0.0 0.00 0.01 0.01 75 1019.9
20260901115904 54 35 0.0 0.0 0.00 0.01 0.01 75 1019.9
20260901115404 54 35 0.0 0.0 0.00 0.01 0.01 75 1019.9
20260901114904 54 35 0.0 0.0 0.00 0.01 0.01 75 1019.9
20260901114404 54 35 0.0 0.0 0.00 0.01 0.01 75 1019.9
20260901113904 54 35 0.0 0.0 0.00 0.01 0.01 75 1019.8
20260901112904 54 35 0.0 0.0 0.00 0.01 0.01 75 1019.7
20260901112404 54 35 0.0 0.0 0.00 0.01 0.01 75 1019.6
20260901111904 54 35 0.0 0.0 0.00 0.01 0.01 74 1019.5
20260901111404 54 35 0.0 0.0 0.01 0.01 0.01 74 1019.5
20260901110904 54 35 0.0 0.0 0.01 0.01 0.01 74 1019.7
20260901110404 55 35 0.0 0.0 0.01 0.01 0.01 73 1019.7
20260901105904 55 34 0.0 0.0 0.01 0.01 0.01 73 1019.6
20260901105404 55 34 0.0 0.0 0.01 0.01 0.01 72 1019.4
20260901104904 55 34 0.0 0.0 0.01 0.01 0.01 72 1019.4
20260901104404 55 34 0.0 0.0 0.01 0.01 0.01 72 1019.4
20260901103904 55 34 0.0 0.0 0.01 0.01 0.01 72 1019.4
20260901102404 55 34 0.0 0.0 0.01 0.01 0.01 71 1019.5
20260901101904 56 34 0.0 0.0 0.01 0.01 0.01 71 1019.6
20260901101404 56 34 0.0 0.0 0.00 0.00 0.00 71 1019.5
20260901100904 56 34 0.0 0.0 0.00 0.00 0.00 71 1019.5
20260901100404 56 34 0.0 0.0 0.00 0.00 0.00 70 1019.4
20260901095404 56 34 0.0 0.0 0.00 0.00 0.00 69 1019.7
20260901094904 56 34 0.0 0.0 0.00 0.00 0.00 68 1019.7
20260901094404 56 34 0.0 0.0 0.00 0.00 0.00 68 1019.5
20260901093404 57 34 0.0 0.0 0.00 0.00 0.00 68 1019.5
20260901092904 57 34 0.0 0.0 0.00 0.00 0.00 67 1019.6
20260901092404 57 34 0.0 0.0 0.00 0.00 0.00 66 1019.5
20260901091905 57 34 0.0 0.0 0.00 0.00 0.00 65 1019.5
20260901091404 57 34 0.0 0.0 0.00 0.00 0.00 65 1019.4
20260901090904 57 34 0.0 0.0 0.00 0.00 0.00 65 1019.6
20260901090404 57 34 0.0 0.0 0.00 0.00 0.00 65 1019.7
20260901085904 57 34 0.0 0.0 0.00 0.00 0.00 64 1019.6
20260901085404 57 34 0.0 0.0 0.00 0.00 0.00 64 1019.6
20260901084904 57 34 0.0 0.0 0.00 0.00 0.00 63 1019.6
20260901084404 57 34 0.0 0.0 0.00 0.00 0.00 63 1019.5
20260901083904 57 34 0.0 0.0 0.00 0.00 0.00 63 1019.6
20260901083404 57 34 0.0 0.0 0.00 0.00 0.00 61 1019.6
20260901082404 57 34 0.0 0.0 0.00 0.00 0.00 61 1019.6
20260901081904 57 34 0.0 0.0 0.00 0.00 0.00 60 1019.8
20260901080905 57 34 0.0 0.0 0.00 0.00 0.00 59 1019.9
20260901080404 57 34 0.0 0.0 0.00 0.00 0.00 59 1019.9
20260901075904 57 32 0.0 0.0 0.00 0.00 0.00 60 1019.8
20260901075404 57 32 0.0 0.0 0.00 0.00 0.00 60 1019.8
20260901074405 57 32 0.0 0.0 0.00 0.00 0.00 60 1019.8
20260901073904 57 32 0.0 0.0 0.00 0.00 0.00 60 1019.9
20260901072904 57 32 0.0 0.0 0.00 0.00 0.00 61 1019.7
20260901071904 57 32 0.0 0.0 0.00 0.00 0.00 59 1019.7
20260901071404 57 32 0.0 0.0 0.00 0.00 0.00 59 1019.7
20260901070904 57 32 0.0 0.0 0.00 0.00 0.00 59 1019.6
20260901070404 57 32 0.0 0.0 0.00 0.00 0.00 60 1019.5
20260901065904 57 32 0.0 0.0 0.00 0.00 0.00 60 1019.6
20260901065404 57 32 0.0 0.0 0.00 0.00 0.00 59 1019.7
20260901064904 57 32 0.0 0.0 0.00 0.00 0.00 59 1019.7
20260901064404 57 32 0.0 0.0 0.00 0.00 0.00 59 1019.7
20260901063904 57 32 0.0 0.0 0.00 0.00 0.00 59 1019.7
20260901062904 57 32 0.0 0.0 0.00 0.00 0.00 58 1019.8
20260901062404 57 32 0.0 0.0 0.00 0.00 0.00 58 1019.7
20260901061904 57 32 0.0 0.0 0.00 0.00 0.00 59 1019.7
20260901061404 57 32 0.0 0.0 0.00 0.00 0.00 59 1019.7
20260901060904 57 32 0.0 0.0 0.00 0.00 0.00 58 1019.6
20260901060404 58 32 0.0 0.0 0.00 0.00 0.00 57 1019.6
20260901055404 58 32 0.0 0.0 0.00 0.00 0.00 56 1019.5
20260901054904 58 32 0.0 0.0 0.00 0.00 0.00 55 1019.5
20260901052904 58 32 0.0 0.0 0.00 0.00 0.00 56 1019.5
20260901052404 58 32 0.0 0.0 0.00 0.00 0.00 56 1019.4
20260901051404 59 32 0.0 0.0 0.00 0.00 0.00 55 1019.5
20260901050904 59 32 0.0 0.0 0.00 0.00 0.00 56 1019.5
20260901050404 59 32 0.0 0.0 0.00 0.00 0.00 56 1019.5
20260901045904 59 32 0.0 0.0 0.00 0.00 0.00 56 1019.5
20260901045404 59 32 0.0 0.0 0.00 0.00 0.00 54 1019.5
20260901044904 60 32 0.0 0.0 0.00 0.00 0.00 53 1019.5
20260901044404 60 32 0.0 0.0 0.00 0.00 0.00 50 1019.5
20260901043404 60 32 0.0 0.0 0.00 0.00 0.00 51 1019.4
20260901042904 60 32 0.0 0.0 0.00 0.00 0.00 51 1019.5
20260901042404 60 32 0.0 0.0 0.00 0.00 0.00 50 1019.5
20260901041904 60 32 0.0 0.0 0.00 0.00 0.00 49 1019.4
20260901041404 61 32 0.0 0.0 0.00 0.00 0.00 50 1019.4
20260901040905 61 32 0.0 0.0 0.00 0.00 0.00 49 1019.3
20260901040404 61 32 0.0 0.0 0.00 0.00 0.00 49 1019.3
20260901035904 61 32 0.0 0.0 0.00 0.00 0.00 49 1019.3
20260901035404 61 32 0.0 0.0 0.00 0.00 0.00 48 1019.2
20260901034904 62 32 0.0 0.0 0.00 0.00 0.00 49 1019.3
20260901033404 62 32 0.0 0.0 0.00 0.00 0.00 47 1019.2
20260901032904 62 32 0.0 0.0 0.00 0.00 0.00 47 1019.1
20260901032404 62 32 0.0 0.0 0.00 0.00 0.00 46 1019.1